Regional Weather Roundup
Issued by NWS

Home | Current Version | Previous Version | Text Only | Print | Product List | Glossary Off
Versions: 1 2 3 4 5 6 7 8 9 10 11 12 13 14 15 16 17 18 19 20 21 22 23 24 25 26 27 28 29 30 31 32 33 34 35 36 37 38 39 40 41 42 43 44 45 46 47 48 49 50

000
ASUS43 KOAX 121910
RWRNE

WEATHER ROUNDUP FOR NEBRASKA
NATIONAL WEATHER SERVICE OMAHA NE
100 PM CST TUE DEC 12 2017

NOTES: SATELLITE DATA IS BEING USED TO AUGMENT CLOUD COVER ABOVE
       12000 FEET.
       "FAIR" INDICATES FEW OR NO CLOUDS BELOW 12,000 FEET WITH NO
       SIGNIFICANT WEATHER AND/OR OBSTRUCTIONS TO VISIBILITY.


NEZ001>004-019>022-054>056-122000-
NEBRASKA PANHANDLE

CITY           SKY/WX    TMP DP  RH WIND       PRES   REMARKS
SCOTTSBLUFF    SUNNY     57  18  21 W13       30.19F
ALLIANCE       SUNNY     62  20  19 NW17      30.15F
CHADRON        SUNNY     55  23  28 W10       30.14F
GORDON         FAIR      55  22  28 NW13G20   30.11F
KIMBALL        SUNNY     64  17  16 NW17      30.21F
SIDNEY         SUNNY     63  16  16 NW14      30.20F
$$

NEZ057>060-069>072-079>082-122000-
SOUTHWEST NEBRASKA

CITY           SKY/WX    TMP DP  RH WIND       PRES   REMARKS
NORTH PLATTE   SUNNY     48  23  37 W7        30.17F
IMPERIAL       SUNNY     59  18  20 NW7       30.19F
LEXINGTON      SUNNY     46  21  36 W7        30.17F
MCCOOK         SUNNY     48  22  35 W8        30.20F
OGALLALA       SUNNY     54  21  27 W5        30.18F
$$

NEZ005>010-023>029-035>040-094-122000-
NORTH CENTRAL NEBRASKA

CITY           SKY/WX    TMP DP  RH WIND       PRES   REMARKS
VALENTINE      SUNNY     51  21  30 SW10      30.09F
AINSWORTH      SUNNY     50  21  31 W8        30.10F
BROKEN BOW     SUNNY     50  18  28 W10       30.14F
O`NEILL        SUNNY     45  29  52 W10       30.11F
ORD            SUNNY     47  24  40 W8        30.13F
THEDFORD       SUNNY     53  22  30 NW9       30.13F
$$

NEZ041-046>049-061>064-073>077-083>087-122000-
SOUTH CENTRAL NEBRASKA

CITY           SKY/WX    TMP DP  RH WIND       PRES   REMARKS
GRAND ISLAND   SUNNY     47  27  45 W10       30.17F
AURORA         SUNNY     45  27  50 W10       30.17F
HASTINGS       SUNNY     46  24  42 W13       30.18F
HEBRON         SUNNY     47  28  48 SW6       30.22F
HOLDREGE       SUNNY     46  26  44 SW7       30.18F
KEARNEY        SUNNY     47  22  37 W8        30.17F
YORK           SUNNY     45  28  53 W10G16    30.18F
$$

NEZ011>018-030>034-042>045-122000-
NORTHEAST NEBRASKA

CITY           SKY/WX    TMP DP  RH WIND       PRES   REMARKS
NORFOLK        SUNNY     43  27  53 W9G16     30.11F
ALBION         SUNNY     45  28  52 W9        30.13F
BLAIR          CLOUDY    35  24  65 SW9       30.19F WCI  27
COLUMBUS       SUNNY     45  28  51 W14       30.16F
FREMONT        CLOUDY    38  27  66 SW8       30.19F WCI  32
TEKAMAH        CLOUDY    37  23  56 MISG      30.18F
WAYNE          SUNNY     43  24  47 W12       30.12F
$$

NEZ050>053-065>068-078-088>093-122000-
SOUTHEAST NEBRASKA

CITY           SKY/WX    TMP DP  RH WIND       PRES   REMARKS
LINCOLN        PTSUNNY   43  29  57 W5        30.21F
OMAHA EPPLEY   PTSUNNY   35  19  52 S7        30.21F WCI  29
BEATRICE       PTSUNNY   45  30  57 W13       30.21F
FALLS CITY     SUNNY     37  21  52 W8        30.25F WCI  31
NEBRASKA CITY  PTSUNNY   36  25  63 W8        30.23F WCI  30
PLATTSMOUTH    CLOUDY    36  25  62 SW10      30.21F WCI  29
$$

NEZ044-045-051>053-067-122000-
OMAHA AREA

CITY           SKY/WX    TMP DP  RH WIND       PRES   REMARKS
OMAHA EPPLEY   PTSUNNY   35  19  52 S7        30.21F WCI  29
BLAIR          CLOUDY    35  24  65 SW9       30.19F WCI  27
FREMONT        CLOUDY    38  27  66 SW8       30.19F WCI  32
MILLARD        CLOUDY    36  24  62 W6        30.21F WCI  31
OFFUTT AFB     PTSUNNY   36  21  55 SW8       30.20F WCI  29
PLATTSMOUTH    CLOUDY    36  25  62 SW10      30.21F WCI  29
WAHOO          MOCLDY    38  26  62 SW6       30.20F WCI  34
$$




USA.gov is the U.S. government's official web portal to all federal, state and local government web resources and services.